Date String (YYYY-MM-DD hh:mm:ss) UTC,Instrument flags,Ambient pressure (hPa),Sample flow (lpm),Bypass flow (lpm),Sample temperature (°C),Ambient temperature (°C),ASC tube jacket temperature (°C),LED temperature (°C),Box temperature (°C),Sample RH (%),Span deviation,Mass concentration (μg/m³),Mass concentration (μg/m³),Mass concentration (μg/m³)
DateTimeUTC,F1_M11,P_M11,Q1_M11,Q2_M11,T1_M11,T2_M11,T3_M11,T4_M11,T5_M11,U1_M11,ZSPAN_M11,X0_M11,X2_M11,X1_M11
2022-10-23 02:00:00,,0808.7,5.00,0.00,29.7,28.4,00.0,38.6,31.6,07.8,0000.0,0007.37,0002.15,0001.30
2022-10-23 02:01:00,,0808.7,5.00,0.00,29.8,28.4,00.0,38.6,31.7,07.8,0000.0,0006.47,0002.17,0001.31
2022-10-23 02:02:00,,0808.8,5.00,0.00,29.8,28.5,00.0,38.6,31.7,07.8,0000.0,0006.80,0002.14,0001.30
2022-10-23 02:03:00,,0808.7,4.99,0.00,29.8,28.5,00.0,38.6,31.7,07.9,0000.0,0007.16,0002.14,0001.30
2022-10-23 02:04:00,,0808.7,5.00,0.00,29.8,28.5,00.0,38.6,31.7,07.9,0000.0,0006.84,0002.17,0001.30
2022-10-23 02:05:00,,0808.7,5.00,0.00,29.8,28.5,00.0,38.6,31.7,08.0,0000.0,0006.02,0002.19,0001.30
2022-10-23 02:06:00,,0808.7,5.00,0.00,29.8,28.5,00.0,38.6,31.7,08.0,0000.0,0006.47,0002.22,0001.30
2022-10-23 02:07:00,,0808.8,5.01,0.00,29.9,28.5,00.0,38.7,31.7,08.0,0000.0,0007.10,0002.26,0001.31
2022-10-23 02:08:00,,0808.8,5.00,0.00,29.9,28.6,00.0,38.7,31.8,08.0,0000.0,0007.36,0002.32,0001.32
2022-10-23 02:09:00,,0808.9,5.00,0.00,29.9,28.6,00.0,38.7,31.8,08.0,0000.0,0007.42,0002.35,0001.33
2022-10-23 02:10:00,,0808.8,4.98,0.00,29.9,28.6,00.0,38.7,31.8,08.0,0000.0,0007.47,0002.35,0001.31
2022-10-23 02:11:00,,0808.9,5.00,0.00,29.9,28.6,00.0,38.7,31.9,08.0,0000.0,0007.47,0002.35,0001.31
2022-10-23 02:12:00,,0808.9,5.01,0.00,30.0,28.7,00.0,38.7,31.8,08.1,0000.0,0007.55,0002.42,0001.29
2022-10-23 02:13:00,,0808.9,5.00,0.00,30.0,28.7,00.0,38.7,31.9,08.1,0000.0,0007.71,0002.42,0001.29
2022-10-23 02:14:00,,0808.9,5.00,0.00,30.0,28.7,00.0,38.8,31.8,08.1,0000.0,0007.96,0002.40,0001.29
2022-10-23 02:15:00,,0808.9,4.98,0.00,30.0,28.7,00.0,38.8,31.9,08.1,0000.0,0008.25,0002.40,0001.29
2022-10-23 02:16:00,,0808.9,5.01,0.00,30.0,28.7,00.0,38.8,31.9,08.0,0000.0,0008.77,0002.43,0001.30
2022-10-23 02:17:00,,0808.9,5.00,0.00,30.0,28.7,00.0,38.8,31.9,08.0,0000.0,0009.22,0002.43,0001.30
2022-10-23 02:18:00,,0808.8,5.00,0.00,30.0,28.7,00.0,38.8,32.0,08.0,0000.0,0009.26,0002.44,0001.30
2022-10-23 02:19:00,,0808.8,5.00,0.00,30.1,28.7,00.0,38.8,32.0,08.0,0000.0,0009.45,0002.43,0001.31
2022-10-23 02:20:00,,0808.8,5.00,0.00,30.1,28.8,00.0,38.9,32.0,08.0,0000.0,0010.79,0002.43,0001.31
2022-10-23 02:21:00,,0808.7,4.99,0.00,30.1,28.2,00.0,38.8,31.9,08.0,0000.0,0010.96,0002.40,0001.32
2022-10-23 02:22:00,,0808.7,5.01,0.00,30.1,26.7,00.0,38.8,31.8,08.0,0000.0,0010.85,0002.37,0001.33
2022-10-23 02:23:00,,0808.7,4.99,0.00,30.0,26.2,00.0,38.7,31.7,08.0,0000.0,0010.85,0002.32,0001.35
2022-10-23 02:24:00,,0808.7,5.02,0.00,29.9,26.4,00.0,38.7,31.5,08.1,0000.0,0010.67,0002.31,0001.36
2022-10-23 02:25:00,,0808.8,4.98,0.00,29.8,26.7,00.0,38.7,31.5,08.1,0000.0,0009.93,0002.33,0001.37
2022-10-23 02:26:00,,0808.8,5.01,0.00,29.8,27.1,00.0,38.6,31.5,08.2,0000.0,0009.73,0002.32,0001.37
2022-10-23 02:27:00,,0808.8,4.99,0.00,29.7,27.3,00.0,38.6,31.5,08.2,0000.0,0009.62,0002.28,0001.36
2022-10-23 02:28:00,,0808.8,4.99,0.00,29.7,27.6,00.0,38.6,31.5,08.2,0000.0,0008.91,0002.27,0001.37
2022-10-23 02:29:00,,0808.8,4.99,0.00,29.7,27.7,00.0,38.6,31.5,08.3,0000.0,0008.65,0002.20,0001.36
2022-10-23 02:30:00,,0808.7,5.01,0.00,29.7,27.9,00.0,38.6,31.5,08.3,0000.0,0008.68,0002.16,0001.37
2022-10-23 02:31:00,,0808.7,5.00,0.00,29.7,28.0,00.0,38.6,31.6,08.2,0000.0,0007.76,0002.18,0001.38
2022-10-23 02:32:00,,0808.7,5.00,0.00,29.7,28.1,00.0,38.6,31.6,08.2,0000.0,0007.45,0002.27,0001.38
2022-10-23 02:33:00,,0808.7,5.01,0.00,29.7,28.1,00.0,38.6,31.6,08.2,0000.0,0007.74,0002.33,0001.38
2022-10-23 02:34:00,,0808.7,5.00,0.00,29.7,28.2,00.0,38.6,31.6,08.2,0000.0,0007.66,0002.32,0001.37
2022-10-23 02:35:00,,0808.7,5.00,0.00,29.7,28.3,00.0,38.6,31.6,08.2,0000.0,0007.74,0002.33,0001.37
2022-10-23 02:36:00,,0808.7,5.00,0.00,29.8,28.3,00.0,38.6,31.6,08.2,0000.0,0008.11,0002.33,0001.37
2022-10-23 02:37:00,,0808.7,5.00,0.00,29.8,28.3,00.0,38.6,31.6,08.2,0000.0,0008.06,0002.28,0001.37
2022-10-23 02:38:00,,0808.7,5.00,0.00,29.8,28.4,00.0,38.6,31.6,08.2,0000.0,0007.81,0002.35,0001.38
2022-10-23 02:39:00,,0808.6,5.00,0.00,29.8,28.4,00.0,38.6,31.7,08.2,0000.0,0007.86,0002.36,0001.38
2022-10-23 02:40:00,,0808.6,4.99,0.00,29.8,28.4,00.0,38.6,31.7,08.2,0000.0,0009.20,0002.39,0001.40
2022-10-23 02:41:00,,0808.6,5.01,0.00,29.8,28.5,00.0,38.6,31.7,08.2,0000.0,0009.53,0002.48,0001.41
2022-10-23 02:42:00,,0808.6,5.01,0.00,29.8,28.5,00.0,38.7,31.7,08.2,0000.0,0009.34,0002.53,0001.40
2022-10-23 02:43:00,,0808.6,5.00,0.00,29.9,28.5,00.0,38.7,31.8,08.2,0000.0,0009.04,0002.45,0001.41
2022-10-23 02:44:00,,0808.6,5.01,0.00,29.9,28.5,00.0,38.7,31.8,08.2,0000.0,0009.48,0002.44,0001.42
2022-10-23 02:45:00,,0808.6,5.00,0.00,29.9,28.5,00.0,38.7,31.8,08.2,0000.0,0009.92,0002.49,0001.44
2022-10-23 02:46:00,,0808.5,5.01,0.00,29.9,28.6,00.0,38.7,31.8,08.2,0000.0,0010.09,0002.58,0001.44
2022-10-23 02:47:00,,0808.5,5.00,0.00,29.9,28.6,00.0,38.7,31.8,08.2,0000.0,0009.91,0002.61,0001.46
2022-10-23 02:48:00,,0808.5,4.98,0.00,29.9,28.6,00.0,38.7,31.8,08.2,0000.0,0010.43,0002.68,0001.47
2022-10-23 02:49:00,,0808.4,5.01,0.00,29.9,28.6,00.0,38.7,31.8,08.2,0000.0,0011.11,0002.73,0001.49
2022-10-23 02:50:00,,0808.4,5.01,0.00,30.0,28.6,00.0,38.8,31.9,08.2,0000.0,0011.57,0002.80,0001.50
2022-10-23 02:51:00,,0808.4,5.01,0.00,30.0,28.6,00.0,38.8,31.9,08.2,0000.0,0010.17,0002.78,0001.51
2022-10-23 02:52:00,,0808.4,5.01,0.00,30.0,28.7,00.0,38.8,31.9,08.2,0000.0,0009.70,0002.72,0001.51
2022-10-23 02:53:00,,0808.4,4.98,0.00,30.0,28.7,00.0,38.8,31.9,08.1,0000.0,0009.83,0002.68,0001.52
2022-10-23 02:54:00,,0808.5,5.01,0.00,30.0,28.7,00.0,38.8,31.9,08.1,0000.0,0009.88,0002.71,0001.52
2022-10-23 02:55:00,,0808.4,5.00,0.00,30.0,28.7,00.0,38.8,31.9,08.1,0000.0,0009.24,0002.70,0001.52
2022-10-23 02:56:00,,0808.4,5.00,0.00,30.0,28.7,00.0,38.8,31.9,08.1,0000.0,0008.80,0002.69,0001.52
2022-10-23 02:57:00,,0808.4,5.00,0.00,30.1,28.7,00.0,38.8,32.0,08.1,0000.0,0008.72,0002.71,0001.52
2022-10-23 02:58:00,,0808.5,5.01,0.00,30.1,28.7,00.0,38.9,32.0,08.0,0000.0,0008.84,0002.74,0001.52
2022-10-23 02:59:00,,0808.5,5.00,0.00,30.1,28.8,00.0,38.9,32.0,08.0,0000.0,0008.43,0002.77,0001.53
